Zurück zum Katalog

COSMOS 2251 DEB

AktivLEO
NORAD 38001·DEBRIS·🇷🇺 Russia

Gestartet Jun 16, 1993 von Plesetsk Cosmodrome

Loading…

Nächste Überflüge (nächste 24 Stunden)

TLE

VeraltetSource: Space-Track

Epoche: Sep 6, 2026, 15:22 UTC

1 38001U 93036BRC 26249.64090338  .00001583  00000-0  20027-3 0  9990
2 38001  74.0012 323.0462 0061657  43.6649 105.7396 14.81449399786728

Verfolge COSMOS 2251 DEB in Echtzeit mit AllMySat

Download on the App Store